Weather History for Lubbock, TX

Change the Weather History Date:

Saturday, March 9, 2013

  Actual Average Record
Temperature  
Mean Temperature 54 °F 50 °F  
Max Temperature 65 °F 65 °F 88 °F (1911)
Min Temperature 42 °F 35 °F 13 °F (1924)
Degree Days  
Heating Degree Days 11 15  
Month to date heating degree days 112 145  
Since 1 July heating degree days 2642 2884  
Cooling Degree Days 0 0  
Month to date cooling degree days 1 0  
Year to date cooling degree days 1 0  
Growing Degree Days 3 (Base 50)    
Moisture  
Dew Point 35 °F    
Average Humidity 49    
Maximum Humidity 86    
Minimum Humidity 12    
Precipitation  
Precipitation 0.00 in 0.04 in 0.62 in (1951)
Month to date precipitation 0.00 0.29  
Year to date precipitation 2.23 1.69  
Snow  
Snow 0.00 in 0.00 in - ()
Month to date snowfall 0.0 0.2  
Since 1 July snowfall 3.7 7.6  
Snow Depth 0.00 in    
Sea Level Pressure  
Sea Level Pressure 29.69 in    
Wind  
Wind Speed 20 mph (WSW)    
Max Wind Speed 40 mph    
Max Gust Speed 49 mph    
Visibility 8 miles    
Events      
T = Trace of Precipitation, MM = Missing Value Source: NWS Daily Summary

Daily Weather History Graph

Daily Weather History Graph

Search for Another Location

Airport:

Trip Planner

Search our weather history database for the weather conditions in past years. The results will help you decide how hot, cold, wet, or windy it might be!

Date:

Astronomy

Mar. 09, 2013 Rise Set
Actual Time 7:05 AM CST 6:50 PM CST
Civil Twilight 6:40 AM CST 7:15 PM CST
Nautical Twilight 6:11 AM CST 7:44 PM CST
Astronomical Twilight 5:42 AM CST 8:13 PM CST
Moon 5:25 AM CST (3/9) 4:58 PM CST (3/9)
Length of Visible Light 12h 35m
Length of Day
11h 45m
Waning Crescent, 5% of the Moon is Illuminated
Mar 9
Waning Crescent
Mar 11
New
Mar 19
First Quarter
Mar 27
Full
Apr 2
Last Quarter

Hourly Weather History & Observations

Time (CST) Temp. Windchill Dew Point Humidity Pressure Visibility Wind Dir Wind Speed Gust Speed Precip Events Conditions
12:53 AM 60.1 °F - 53.1 °F 78% 29.70 in 10.0 mi SSW 18.4 mph 26.5 mph N/A   Overcast
1:53 AM 60.1 °F - 53.1 °F 78% 29.67 in 10.0 mi South 16.1 mph - N/A   Overcast
2:35 AM 59.0 °F - 53.6 °F 82% 29.77 in 9.0 mi South 16.1 mph 23.0 mph N/A   Mostly Cloudy
2:53 AM 59.0 °F - 53.1 °F 81% 29.64 in 9.0 mi South 15.0 mph - N/A   Mostly Cloudy
3:53 AM 57.0 °F - 52.0 °F 83% 29.62 in 8.0 mi South 11.5 mph - N/A   Partly Cloudy
4:53 AM 57.0 °F - 53.1 °F 87% 29.62 in 8.0 mi South 13.8 mph - N/A   Scattered Clouds
5:53 AM 57.9 °F - 53.1 °F 84% 29.63 in 7.0 mi SSW 13.8 mph - N/A   Overcast
6:10 AM 57.2 °F - 53.6 °F 88% 29.75 in 7.0 mi SSW 16.1 mph - N/A   Overcast
6:53 AM 57.0 °F - 53.1 °F 87% 29.66 in 6.0 mi SW 15.0 mph 21.9 mph N/A   Overcast
7:02 AM 57.2 °F - 53.6 °F 88% 29.77 in 6.0 mi WSW 15.0 mph - N/A   Overcast
7:19 AM 55.4 °F - 53.6 °F 94% 29.77 in 4.0 mi WSW 12.7 mph - N/A   Overcast
7:26 AM 55.4 °F - 53.6 °F 94% 29.78 in 4.0 mi WSW 10.4 mph - N/A   Overcast
7:53 AM 55.0 °F - 52.0 °F 89% 29.69 in 4.0 mi West 13.8 mph - N/A   Mostly Cloudy
8:08 AM 53.6 °F - 51.8 °F 94% 29.79 in 4.0 mi West 11.5 mph - N/A   Mostly Cloudy
8:53 AM 55.9 °F - 45.0 °F 67% 29.71 in 7.0 mi NW 12.7 mph - N/A   Mostly Cloudy
9:53 AM 57.9 °F - 35.1 °F 42% 29.71 in 10.0 mi West 17.3 mph 25.3 mph N/A   Mostly Cloudy
10:53 AM 61.0 °F - 28.9 °F 30% 29.70 in 10.0 mi West 29.9 mph 38.0 mph N/A   Mostly Cloudy
11:53 AM 60.1 °F - 19.9 °F 21% 29.68 in 6.0 mi WSW 35.7 mph 46.0 mph N/A   Widespread Dust
12:53 PM 60.1 °F - 14.0 °F 16% 29.67 in 9.0 mi WSW 27.6 mph 42.6 mph N/A   Mostly Cloudy
1:53 PM 63.0 °F - 12.9 °F 14% 29.64 in 10.0 mi WSW 29.9 mph 39.1 mph N/A   Mostly Cloudy
2:53 PM 64.0 °F - 10.9 °F 13% 29.60 in 10.0 mi WSW 25.3 mph 36.8 mph N/A   Mostly Cloudy
3:53 PM 64.9 °F - 10.0 °F 12% 29.60 in 10.0 mi West 26.5 mph 43.7 mph N/A   Scattered Clouds
4:53 PM 63.0 °F - 12.0 °F 14% 29.61 in 10.0 mi West 25.3 mph 36.8 mph N/A   Partly Cloudy
5:53 PM 60.1 °F - 16.0 °F 18% 29.63 in 10.0 mi WNW 17.3 mph - N/A   Scattered Clouds
6:53 PM 55.0 °F - 15.1 °F 21% 29.64 in 10.0 mi WNW 16.1 mph 26.5 mph N/A   Scattered Clouds
7:53 PM 52.0 °F - 19.0 °F 27% 29.68 in 10.0 mi WNW 17.3 mph - N/A   Scattered Clouds
8:53 PM 50.0 °F - 18.0 °F 28% 29.73 in 10.0 mi West 10.4 mph - N/A   Mostly Cloudy
9:53 PM 50.0 °F - 17.1 °F 27% 29.74 in 10.0 mi West 17.3 mph - N/A   Mostly Cloudy
10:53 PM 46.0 °F 37.6 °F 28.0 °F 50% 29.75 in 10.0 mi NNW 24.2 mph 40.3 mph N/A   Mostly Cloudy
11:53 PM 42.1 °F 31.9 °F 27.0 °F 55% 29.78 in 10.0 mi NNW 26.5 mph 35.7 mph N/A   Scattered Clouds